Regional Weather Roundup
Issued by NWS

Home | Current Version | Previous Version | Text Only | Print | Product List | Glossary On
Versions: 1 2 3 4 5 6 7 8 9 10 11 12 13 14 15 16 17 18 19 20 21 22 23 24 25 26
000
ASUS45 KREV 271010
RWRNV
NEVADA REGIONAL WEATHER ROUNDUP
NATIONAL WEATHER SERVICE RENO NV
300 AM PDT FRI MAY 27 2016

NOTE: "FAIR" INDICATES FEW OR NO CLOUDS BELOW 12,000 FEET WITH NO
SIGNIFICANT WEATHER AND/OR OBSTRUCTIONS TO VISIBILITY.

NVZ001-003-004-271100-
WESTERN NEVADA

CITY           SKY/WX    TMP DP  RH WIND       PRES   REMARKS
RENO           CLEAR     56  40  55 SW3       30.06S
CARSON CITY    FAIR      50  39  66 W3        30.08S
MINDEN         FAIR      41  41 100 E8        30.07F
SLIDE MTN        N/A     36  28  75 NW10        N/A
FALLON         MOCLDY    53  38  56 SW5       30.01R
LOVELOCK       CLEAR     58  24  27 N9        29.99S
HAWTHORNE      CLEAR     54  37  54 S6        30.02F
$$

NVZ002-CAZ072-073-271100-
NORTHERN AND CENTRAL SIERRA

CITY           SKY/WX    TMP DP  RH WIND       PRES   REMARKS
S. LAKE TAHOE  CLEAR     38  35  89 CALM      30.12
TRUCKEE        CLEAR     36  36 100 CALM      30.13S FOG
SQUAW VLY 8000 NOT AVBL
SUSANVILLE     CLEAR     48  36  61 W5        30.07S
BLUE CANYON    CLEAR     52  36  54 N5        30.09F
MAMMOTH LAKES  FAIR      38  33  82 W6        30.14F
BRIDGEPORT     FAIR      34  29  82 CALM      30.12F
$$

NVZ030-031-036-271100-
NORTHERN NEVADA

CITY           SKY/WX    TMP DP  RH WIND       PRES   REMARKS
ELKO           PTCLDY    41  38  89 NE3       30.01S
WINNEMUCCA     CLOUDY    42  36  79 CALM      29.99S
WENDOVER       CLOUDY    57  39  51 E8        29.96S
$$

NVZ035-037-271100-
CENTRAL NEVADA

CITY           SKY/WX    TMP DP  RH WIND       PRES   REMARKS
ELY            PTCLDY    34  31  88 S9        30.07R
EUREKA           N/A     41  34  76 S8        30.04S
$$

NVZ013-014-271100-
SOUTH CENTRAL NEVADA

CITY           SKY/WX    TMP DP  RH WIND       PRES   REMARKS
TONOPAH        CLEAR     46  32  58 N12       30.04S
$$

NVZ017-020-022-271100-
SOUTHERN NEVADA

CITY           SKY/WX    TMP DP  RH WIND       PRES   REMARKS
LAS VEGAS      PTCLDY    71  34  25 CALM      29.80F
N. LAS VEGAS   PTCLDY    70  34  26 CALM      29.84S
NELLIS AFB     PTCLDY    69  37  30 NE9       29.83S
HENDERSON      MOCLDY    67  34  29 SW14      29.87F
MERCURY        CLEAR     53  27  36 CALM      29.90F
$$




USA.gov is the U.S. government's official web portal to all federal, state and local government web resources and services.